Regional Weather Roundup
Issued by NWS

Home | Current Version | Previous Version | Graphics & Text | Print | Product List | Glossary On
Versions: 1 2 3 4 5 6 7 8 9 10 11 12 13 14 15 16 17 18 19 20 21 22 23 24 25 26 27
000
ASUS45 KCYS 230010
RWRWY

WYOMING REGIONAL WEATHER ROUNDUP
NATIONAL WEATHER SERVICE CHEYENNE WY
500 PM MST WED NOV 22 2017

NOTE:  "FAIR" INDICATES FEW OR NO CLOUDS BELOW 12,000 FEET
WITH NO SIGNIFICANT WEATHER AND/OR OBSTRUCTIONS TO VISIBILITY.

WYZ001-230100-
YELLOWSTONE NATIONAL PARK

CITY           SKY/WX    TMP DP  RH WIND       PRES   REMARKS
LK YELLOWSTONE   N/A     38  37  97 VRB3      30.42R
6HR MIN TEMP:  37; 6HR MAX TEMP:  41;

W YELLOWSTONE  NOT AVBL

$$
WYZ002>013-054>058-071-098>099-230100-
NORTHERN WYOMING

CITY           SKY/WX    TMP DP  RH WIND       PRES   REMARKS
JACKSON        FAIR      48  40  73 SW12      30.38R
CODY           FAIR      56  39  53 W18G31    30.23R
GREYBULL       FAIR      47  35  63 SE3       30.19R
6HR MIN TEMP:  43; 6HR MAX TEMP:  56;

WORLAND        FAIR      38  33  82 CALM      30.20S
6HR MIN TEMP:  37; 6HR MAX TEMP:  49;

SHERIDAN       FAIR      55  38  52 W6        30.10R
6HR MIN TEMP:  50; 6HR MAX TEMP:  69;

BUFFALO        FAIR      55  32  41 NW7       30.15S
6HR MIN TEMP:  55; 6HR MAX TEMP:  66;

GILLETTE       FAIR      45  36  70 CALM      30.12R
6HR MIN TEMP:  42; 6HR MAX TEMP:  66;

HULETT         FAIR      57  37  47 W8        30.10R
NEWCASTLE      FAIR      52  34  50 N14       30.11S

$$
WYZ014>020-022>026-101>103-230100-
CENTRAL WYOMING

CITY           SKY/WX    TMP DP  RH WIND       PRES   REMARKS
BIG PINEY      FAIR      40  38  93 CALM      30.42S
6HR MIN TEMP:  39; 6HR MAX TEMP:  47;

PINEDALE       CLOUDY    39  37  93 CALM      30.43S
DUBOIS         FAIR      43  36  75 NW15      30.35S
LANDER         FAIR      53  36  52 E6        30.24R
6HR MIN TEMP:  48; 6HR MAX TEMP:  60;

RIVERTON       MOCLDY    55  37  50 W12       30.25R
6HR MIN TEMP:  47; 6HR MAX TEMP:  60;

CASPER         FAIR      50  38  63 SW13      30.23R
6HR MIN TEMP:  50; 6HR MAX TEMP:  59;

DOUGLAS        FAIR      52  39  61 N7        30.19S
6HR MIN TEMP:  51; 6HR MAX TEMP:  65;


$$
WYZ021-027>030-104>119-230100-
SOUTHERN WYOMING

CITY           SKY/WX    TMP DP  RH WIND       PRES   REMARKS
EVANSTON       FAIR      49  40  71 W10       30.47S
6HR MIN TEMP:  49; 6HR MAX TEMP:  55;

KEMMERER       FAIR      45  37  76 SW7       30.46R
FORT BRIDGER   FAIR      51  41  69 W8        30.48S
ROCK SPRINGS   FAIR      49  39  68 W18       30.41S
6HR MIN TEMP:  49; 6HR MAX TEMP:  53;

DIXON          CLOUDY    50  38  63 W5        30.43S
RAWLINS        FAIR      49  40  71 W18G25    30.35R
6HR MIN TEMP:  48; 6HR MAX TEMP:  54; 6HR PCP: TRACE;

SARATOGA       FAIR      46  37  71 W12       30.39S
LARAMIE        CLOUDY    48  38  68 W18G29    30.33F
6HR MIN TEMP:  48; 6HR MAX TEMP:  55;

CHEYENNE       CLOUDY    55  38  52 W10       30.27R
6HR MIN TEMP:  55; 6HR MAX TEMP:  62;

TORRINGTON     FAIR      58  42  55 W9        30.15R
6HR MIN TEMP:  58; 6HR MAX TEMP:  71;

PINE BLUFFS    CLOUDY    57  37  47 NW29G36   30.21S

$$




USA.gov is the U.S. government's official web portal to all federal, state and local government web resources and services.